Location: Unspecified
(0.0000°N, 0.0000°E)
Time: 14:57:22
(UTC+00:00)

NAPA-2 - Pass Details

Date: 19 February 2026
Orbit: 356 x 361 km, 97.7° (Epoch: 6 March)

Event Time Altitude Azimuth Distance (km) Brightness Sun altitude
Rises 05:28:29 0° 159° (SSE) 2,184 ? -11.1°
Reaches altitude 10° 05:30:28 10° 151° (SSE) 1,334 ? -10.6°
Maximum altitude 05:33:10 41° 79° (E) 532 ? -10.0°
Drops below altitude 10° 05:35:50 10° 6° (N) 1,322 ? -9.3°
Sets 05:37:48 0° 359° (N) 2,162 ? -8.8°
